Location: Vihti�l�
(61.3833°N, 23.0667°E)
Time: 05:38:15
(UTC+00:00)

Cosmos 990 Rocket - Pass Details

Date: 29 November 2020
Orbit: 747 x 768 km, 74.0° (Epoch: 22 January)

Event Time Altitude Azimuth Distance (km) Brightness Sun altitude
Rises 05:33:08 0° 235° (SW) 3,233 7.0 -10.1°
Reaches altitude 10° 05:35:35 10° 240° (WSW) 2,311 6.2 -9.9°
Maximum altitude 05:40:41 50° 316° (NW) 984 4.2 -9.3°
Drops below altitude 10° 05:45:49 10° 32° (NNE) 2,324 6.5 -8.8°
Sets 05:48:17 0° 38° (NE) 3,253 7.4 -8.5°
